Location: ??????
(55.7522°N, 37.6156°E)
Time: 17:44:22
(UTC+00:00)

Cosmos 968 Rocket - Pass Details

Date: 14 June 2025
Orbit: 736 x 766 km, 74.0° (Epoch: 12 July)

Event Time Altitude Azimuth Distance (km) Brightness Sun altitude
Exits shadow 22:18:15 13° 185° (S) 2,055 5.1 -10.3°
Maximum altitude 22:22:41 55° 110° (ESE) 917 3.9 -10.1°
Drops below altitude 10° 22:27:48 10° 34° (NE) 2,315 7.3 -10.0°
Sets 22:30:14 0° 30° (NNE) 3,247 8.4 -9.9°
